SCP
0 0 0 0 0 0 0 0 0 0 0 0 0 0 0 0 0 0 0 0 0 0 1 1 1 1 1 1 1 1 1 0 0 0 0 0 0 0 0 0 0 0 0
0 0 0 0 0 0 0 0 0 0 0 0 0 0 0 0 0 0 0 0 0 0 0 1 1 1 1 1 1 1 1 0 0 0 0 0 0 0 0 0 0 0 0
0 0 0 0 0 0 0 0 0 0 0 0 0 0 0 0 0 0 0 0 0 0 0 1 1 1 1 1 1 1 1 0 0 0 0 0 0 0 0 0 0 0 0
0 0 0 0 0 0 0 0 0 0 0 0 0 0 0 0 0 0 0 0 0 0 0 1 1 1 1 1 1 1 1 0 0 0 0 0 0 0 0 0 0 0 0
0 0 0 0 0 0 0 0 0 0 0 0 0 0 0 0 0 0 0 0 0 0 0 0 1 1 1 1 1 1 1 1 1 0 0 0 0 0 0 0 0 0 0
0 0 0 0 0 0 0 0 0 0 0 0 0 0 0 0 0 0 0 0 0 0 0 0 1 1 1 1 1 1 1 1 1 1 0 0 0 0 0 0 0 0 0
0 0 0 0 0 0 0 0 0 0 0 0 0 0 0 0 0 0 0 0 0 0 0 1 1 1 1 1 1 1 1 1 1 1 1 0 0 0 0 0 0 0 0
0 0 0 0 0 0 0 0 0 0 0 0 0 0 0 0 0 0 0 0 0 0 0 1 1 1 0 0 1 1 1 1 1 1 1 1 0 0 0 0 0 0 0
0 0 0 0 0 0 0 0 0 0 0 0 0 0 0 0 0 0 0 0 0 0 1 1 1 1 0 1 1 1 1 1 1 1 1 1 0 0 0 0 0 0 0
0 0 0 0 0 0 0 0 0 0 0 0 0 0 0 0 0 0 0 0 0 0 0 1 1 1 0 0 0 1 1 1 1 1 1 1 1 0 0 0 0 0 0
0 0 0 0 0 0 0 0 0 0 0 0 0 0 0 0 0 0 0 0 0 0 0 0 0 0 0 0 0 1 1 1 1 1 1 1 1 1 0 0 0 0 0
0 0 0 0 0 0 0 0 0 0 0 0 0 0 0 0 0 0 0 0 0 0 0 0 0 0 0 0 0 0 1 1 1 1 1 1 1 1 0 0 0 0 0
0 0 0 0 0 0 0 0 0 0 0 0 0 0 0 0 0 0 0 0 0 0 0 0 0 0 0 0 0 0 0 0 1 1 1 1 1 0 0 0 0 0 0
0 0 0 0 0 0 0 0 0 0 0 0 0 0 0 0 0 0 0 0 0 0 0 0 0 0 0 0 0 0 0 0 1 1 1 1 0 0 0 0 0 0 0
0 0 0 0 0 0 0 0 0 0 0 0 0 0 0 0 0 0 0 0 0 0 0 0 0 0 0 0 0 0 0 0 1 1 1 1 1 0 0 0 0 0 0
0 0 0 0 0 0 0 0 0 0 0 0 0 0 0 0 0 0 0 0 0 0 0 0 0 0 0 0 0 0 0 0 0 1 1 1 1 1 0 0 0 0 0
0 0 0 0 0 0 0 0 0 0 0 0 0 0 0 0 0 0 0 0 0 0 0 0 0 0 0 0 0 0 0 0 0 0 1 1 1 1 0 0 0 0 0
0 0 0 0 0 0 0 0 0 0 0 0 0 0 0 0 0 0 0 0 0 0 0 0 0 0 0 0 0 0 0 0 0 0 0 1 1 1 0 0 0 0 0
0 0 0 0 0 0 0 0 0 0 0 0 0 0 0 0 0 0 0 0 0 0 0 0 0 0 0 0 0 0 0 0 0 0 0 0 0 0 0 0 0 0 0
0 0 0 0 0 0 0 0 0 0 0 0 0 0 0 0 0 0 0 0 0 0 0 0 0 0 0 0 0 0 0 0 0 0 0 0 0 0 0 0 0 0 0
0 0 0 0 0 0 0 0 0 0 0 0 0 0 0 0 0 0 0 0 0 0 0 0 0 0 0 0 0 0 0 0 0 0 0 0 0 0 0 0 0 0 0
0 0 0 0 0 0 0 0 0 0 0 0 0 0 0 0 0 0 0 0 0 0 0 0 0 0 0 0 0 0 0 0 0 0 0 0 0 0 0 0 0 0 0
0 0 0 0 0 0 0 0 0 0 0 0 0 0 0 0 0 0 0 0 0 0 0 0 0 0 0 0 0 0 0 0 0 0 0 0 0 0 0 0 0 0 0
0 0 0 0 0 0 0 0 0 0 0 0 0 0 0 0 0 0 0 0 0 0 0 0 0 0 0 0 0 0 0 0 0 0 0 0 0 0 0 0 0 0 0
0 0 0 0 0 0 0 0 0 0 0 0 0 0 0 0 0 0 0 0 0 0 0 0 0 0 0 0 0 0 0 0 0 0 0 0 0 0 0 0 0 0 0
0 0 0 0 0 0 0 0 0 0 0 0 0 0 0 0 0 0 0 0 0 0 0 0 0 0 0 0 0 0 0 0 0 0 0 0 0 0 0 0 0 0 0
Wind_Speed
4 5 5 5 5 5 6 6 7 7 6 4 4 4 4 4 4 3 4 4 4 3 3 3 2 3 3 4 4 3 3 3 3 2 0 1 0 1 2 2 3 4 4
5 5 5 5 5 6 6 6 6 7 6 4 4 3 4 4 3 3 4 4 3 3 3 3 2 3 2 3 4 4 3 2 3 3 2 0 1 2 2 2 3 4 3
5 6 6 6 6 6 7 6 7 7 7 6 4 4 3 3 3 4 4 4 4 4 3 3 2 2 3 3 4 4 5 3 3 3 4 3 4 2 1 2 3 3 3
4 5 6 7 6 7 6 6 7 7 7 6 5 5 4 4 4 4 4 5 4 4 3 3 2 2 2 3 4 4 4 4 4 3 2 2 3 3 1 1 1 3 3
5 6 6 6 6 6 6 6 6 6 6 6 5 5 4 4 4 4 5 4 4 4 3 2 2 2 2 3 3 3 4 4 4 4 3 2 1 1 2 2 1 1 2
5 6 6 5 5 6 6 6 6 7 7 7 6 5 6 6 6 6 5 4 3 3 4 3 2 2 2 2 3 3 4 4 4 4 3 3 3 3 3 2 2 2 1
5 5 6 6 6 7 7 6 6 7 7 7 6 6 6 5 5 5 5 4 3 3 4 3 2 2 2 2 2 2 3 4 5 5 4 3 3 3 3 3 2 2 1
5 5 6 5 6 6 6 6 6 6 7 7 6 6 6 4 4 4 4 4 3 3 4 3 2 2 2 2 2 2 2 3 4 5 5 3 3 3 3 3 3 2 1
5 5 5 5 5 5 5 5 6 6 6 6 6 6 6 6 6 5 4 4 4 4 5 4 3 3 2 2 1 1 2 2 3 3 4 3 3 3 3 3 3 4 3
5 5 5 5 4 4 4 4 5 5 5 6 6 5 6 6 6 5 6 6 5 5 6 5 4 3 3 2 1 1 1 2 2 2 3 3 2 3 3 3 3 3 3
6 5 4 4 4 4 4 4 5 5 5 6 6 6 6 6 6 5 6 6 5 6 5 5 5 4 3 2 1 1 1 1 1 1 2 3 2 3 3 3 3 3 3
5 4 4 4 4 4 4 4 4 4 4 5 5 6 6 6 6 7 7 6 6 6 6 5 5 4 4 3 1 1 0 1 2 2 2 2 3 3 3 3 4 3 3
4 3 3 4 4 4 3 4 4 4 4 4 5 6 6 7 7 7 7 7 6 6 6 6 5 4 4 3 2 1 0 0 2 2 3 3 3 3 3 4 4 3 3
5 4 4 4 4 3 3 3 3 3 3 3 4 5 6 6 6 6 6 7 6 6 7 6 5 5 4 4 3 2 1 1 1 1 1 2 3 3 3 4 4 4 4
6 5 5 4 4 3 3 3 3 3 2 3 4 5 5 5 6 6 7 7 7 7 6 7 7 6 4 4 4 3 2 2 2 2 1 1 1 2 3 3 4 5 4
7 6 5 5 4 4 3 2 2 2 1 2 3 4 5 5 6 6 6 7 7 7 7 7 7 7 6 8 8 5 3 2 2 2 2 1 1 1 2 3 4 6 6
7 7 6 5 5 4 3 3 2 1 1 2 3 4 4 5 5 5 6 6 6 7 7 7 7 7 7 9 10 10 5 4 3 2 2 2 3 3 3 4 4 3 4
7 7 6 5 4 3 2 2 1 0 1 2 3 3 4 4 5 5 5 5 4 5 5 6 7 7 8 12 11 10 6 5 4 4 3 3 3 2 3 4 4 4 3
7 7 6 5 4 4 3 2 1 1 1 2 3 3 3 3 4 5 5 4 4 5 5 5 7 7 8 12 11 9 4 5 5 5 4 4 3 5 6 5 5 5 4
6 6 5 4 4 4 4 3 2 2 3 3 3 2 2 2 3 3 3 3 3 3 4 5 6 6 7 11 12 9 4 4 4 5 5 7 6 6 6 4 4 5 4
6 5 5 5 5 5 5 4 4 5 5 3 2 2 2 2 2 2 2 3 3 3 4 4 5 5 7 9 11 10 4 3 4 4 4 4 7 8 8 6 4 5 5
6 6 5 6 5 5 6 5 6 6 3 2 2 2 2 2 1 1 2 2 3 3 3 4 4 4 5 7 8 10 8 5 3 3 3 3 7 8 8 6 7 8 7
6 5 6 6 5 6 7 7 7 5 4 3 3 3 2 1 1 1 1 2 2 2 2 3 3 4 4 5 9 10 9 8 4 3 5 7 8 8 6 8 9 6 4
6 5 6 6 7 7 8 8 6 5 5 5 4 3 2 2 1 1 1 1 1 1 1 2 2 3 3 3 4 4 4 5 4 3 5 8 9 6 6 6 5 4 3
5 5 6 8 9 7 8 8 6 6 6 5 5 4 3 3 2 2 2 3 3 3 2 2 1 1 2 3 4 2 2 2 1 2 3 3 3 3 3 3 3 3 3
5 5 7 8 8 7 8 8 7 7 7 6 5 4 4 3 3 3 3 4 6 6 6 6 4 3 4 4 3 3 3 2 2 3 2 2 2 2 2 2 2 2 2
Wind_Direction
299 311 316 319 321 325 331 328 328 327 332 330 328 322 318 313 311 303 300 300 295 286 267 262 246 228 221 219 208 187 187 194 158 136 104 352 308 227 222 206 200 204 202
309 315 318 322 324 322 325 325 325 324 328 322 307 288 288 290 288 299 314 311 309 299 280 253 244 230 225 217 203 182 169 183 167 152 132 184 299 268 226 197 208 209 191
292 308 316 316 323 324 323 325 322 324 325 325 318 315 311 308 321 325 323 318 314 305 292 270 246 233 217 217 209 196 181 185 188 176 158 164 206 223 259 216 210 201 195
292 302 309 314 319 316 320 322 323 325 326 331 335 334 328 316 305 307 306 313 316 314 309 301 281 252 233 225 218 205 193 181 185 187 188 164 160 166 193 253 207 194 200
287 297 301 305 311 316 324 325 328 328 331 339 340 336 328 308 305 310 316 321 322 323 322 316 307 278 249 236 226 208 194 189 184 177 168 162 165 167 156 198 208 204 210
289 297 304 315 316 321 330 333 336 331 337 343 345 346 339 334 335 334 331 328 323 327 334 326 317 294 269 247 232 213 201 200 191 181 174 167 173 182 171 179 190 206 218
283 295 307 316 318 324 331 336 339 333 339 345 347 346 343 340 338 333 332 334 331 329 327 329 318 297 278 263 242 215 210 200 197 192 189 190 195 168 163 162 167 175 205
276 284 292 300 307 316 327 334 335 332 339 345 343 344 346 344 337 333 331 328 323 316 320 324 318 305 291 274 243 223 215 202 200 200 190 191 195 183 178 168 159 158 189
275 282 293 302 306 313 319 328 332 334 339 344 344 348 349 350 344 340 338 334 333 333 342 340 337 327 313 291 246 228 222 204 201 198 191 191 191 184 185 178 173 166 178
277 286 292 299 306 307 315 333 337 334 338 345 348 351 346 346 345 349 350 347 344 344 343 343 341 337 336 327 281 235 231 200 199 189 182 186 189 184 181 184 181 182 174
267 275 284 293 303 315 329 338 340 342 345 346 345 350 347 348 351 354 349 345 345 346 344 341 339 338 335 328 303 251 241 206 196 192 183 190 185 186 184 180 178 185 171
258 268 281 298 310 319 326 329 331 336 338 340 345 349 347 351 357 354 349 349 347 346 346 345 343 343 340 335 335 279 223 202 196 192 182 194 191 192 188 184 185 184 173
263 275 290 295 296 303 313 317 322 326 335 345 350 352 352 353 353 349 346 349 350 352 354 356 357 353 349 351 352 351 58 233 204 187 185 193 187 199 199 188 185 181 177
255 261 273 280 282 287 297 307 316 323 337 349 352 352 348 346 345 345 348 351 354 1 359 358 358 359 360 4 9 24 48 33 26 166 192 201 198 202 197 192 189 181 173
249 247 252 265 274 280 291 297 307 324 340 350 349 343 339 343 350 354 354 356 5 7 1 4 5 3 3 12 16 30 49 45 38 32 14 255 222 215 198 186 182 177 169
240 243 245 254 261 259 265 276 295 311 339 345 336 338 345 350 355 355 357 4 7 7 11 11 8 8 8 18 35 47 47 48 40 21 3 6 44 79 132 153 162 171 169
231 232 235 240 247 245 235 237 264 300 345 333 334 343 347 350 349 355 6 9 7 10 13 11 11 6 2 27 43 46 47 41 32 27 26 35 45 60 78 86 98 111 137
224 226 226 233 237 227 212 206 211 253 318 324 329 337 345 344 347 360 6 4 3 8 9 9 7 11 16 31 41 42 44 45 36 30 34 48 39 66 89 90 80 71 71
212 215 214 215 216 211 195 178 199 243 289 297 305 317 333 341 349 355 353 355 6 10 10 8 11 12 9 23 34 36 35 40 31 26 32 44 52 72 89 96 95 82 65
206 208 205 198 208 207 175 175 209 233 254 261 274 295 313 329 338 338 340 347 1 5 8 14 12 12 8 14 27 31 37 39 30 26 26 36 49 65 76 89 100 93 75
205 198 192 201 213 189 169 192 215 234 241 247 265 293 304 300 308 332 343 350 3 15 16 12 7 10 7 10 21 31 39 36 34 30 18 21 46 61 67 69 83 96 97
203 193 195 215 211 180 177 203 227 234 228 221 246 275 292 306 328 344 344 358 11 19 11 7 2 2 360 6 15 29 37 40 49 33 10 24 54 64 66 71 82 89 90
207 197 199 216 214 193 188 209 229 215 203 210 233 254 273 288 305 311 330 347 4 12 359 3 356 345 349 358 14 23 28 33 46 36 39 51 59 62 65 68 73 76 79
212 200 197 213 224 210 206 217 221 194 194 214 228 235 243 259 266 261 250 253 280 309 328 338 335 334 340 348 353 359 8 20 34 36 44 54 57 58 61 59 54 53 72
213 197 203 218 228 216 216 219 208 188 199 215 223 225 227 232 242 244 235 231 234 214 218 236 243 278 313 307 325 348 350 351 6 46 44 38 39 43 42 47 50 51 65
212 210 218 226 232 220 223 220 201 189 196 212 220 218 218 222 224 239 271 250 239 250 238 225 214 230 245 280 317 345 350 3 66 77 64 52 51 55 55 65 53 51 66